RH
46 45 46 44 44 48 51 50 50 45 42 41 40 42 38 33 35 29 33 34 34 34 35 47 64 85 90 97 95 90 85 78 76 70 63 56 53 47 39 38 37 41 35 46
43 40 40 41 40 43 49 51 48 39 37 39 41 41 35 35 34 32 36 38 38 38 42 43 61 77 88 94 89 89 80 75 72 66 63 54 44 44 42 40 45 42 42 46
40 36 36 35 34 38 43 43 41 39 38 37 37 36 35 36 36 34 37 40 43 45 51 54 70 77 79 82 75 76 77 79 74 64 56 48 44 44 43 49 40 48 54 49
35 33 33 33 34 36 44 45 43 40 39 40 38 33 37 36 30 33 37 38 43 60 68 71 72 63 70 75 73 78 81 75 68 60 56 52 42 48 50 45 52 58 52 49
32 32 32 34 35 38 39 39 42 41 40 35 33 30 33 34 28 34 42 41 53 81 86 82 68 71 80 76 75 76 78 70 63 56 53 55 62 57 55 62 63 63 58 61
32 31 32 32 33 35 36 38 34 34 34 32 33 32 34 28 28 36 44 43 53 73 71 71 84 80 79 72 68 78 77 71 62 60 62 68 69 66 76 84 79 67 57 55
32 31 31 31 32 33 33 35 33 32 31 30 30 31 30 26 28 34 42 42 43 58 82 94 88 89 70 62 71 74 70 63 61 63 75 74 82 81 89 85 75 69 59 57
32 31 31 34 37 37 37 34 31 27 25 25 26 27 28 30 33 38 37 39 46 77 91 95 92 73 62 66 70 65 56 52 64 79 79 88 95 87 90 86 79 74 69 60
28 28 31 36 35 34 32 31 31 28 26 26 32 34 39 38 43 48 54 67 80 85 93 84 63 60 68 70 66 62 61 77 85 86 95 99 97 93 86 76 70 72 70 68
35 31 33 36 35 34 33 32 30 31 31 36 40 39 44 54 57 64 73 70 76 77 67 62 60 63 63 61 65 76 86 92 93 99 100 99 98 94 92 83 70 70 77 76
36 36 37 37 34 33 33 32 35 49 58 55 59 62 58 58 55 56 62 62 54 51 49 50 55 58 73 84 96 94 99 100 100 99 97 92 88 87 77 76 76 73 77 78
38 36 35 35 34 35 35 38 57 72 74 67 67 55 63 54 51 52 53 53 51 48 49 52 62 75 87 93 96 100 100 93 88 84 82 67 64 78 78 76 76 86 81 75
37 34 32 33 35 42 47 75 92 100 98 86 70 69 66 60 54 56 54 54 54 57 62 72 76 83 97 100 91 88 85 82 78 81 88 68 68 78 82 77 82 86 82 77
32 32 38 36 44 61 86 97 95 98 97 89 72 76 76 62 71 69 65 61 56 58 84 93 96 90 85 82 65 64 66 73 80 83 67 52 64 80 84 86 90 89 84 76
47 58 75 90 99 95 86 84 87 89 74 71 78 68 61 56 52 50 49 52 64 65 71 81 82 79 60 52 49 56 63 56 62 64 55 43 49 57 61 49 47 47 43 41
96 85 80 77 88 80 63 83 86 71 66 58 59 60 48 48 51 56 61 67 72 64 64 68 61 45 46 47 44 43 48 55 52 50 49 37 35 36 36 34 34 33 31 28
86 90 95 86 94 84 68 81 73 68 63 62 60 55 54 55 58 69 78 65 63 70 55 57 59 54 46 48 43 38 42 48 38 38 36 32 33 34 35 33 29 27 24 22
80 77 72 76 79 64 78 88 87 81 74 71 65 62 54 55 62 71 79 76 61 70 57 66 76 74 80 80 65 52 43 34 29 31 34 31 30 28 26 26 24 21 17 15
64 56 57 57 62 60 60 76 74 70 63 60 57 52 50 56 57 63 70 67 75 76 83 67 55 56 60 51 44 34 28 29 27 30 29 27 25 24 22 18 14 13 13 14
61 64 60 62 68 67 71 78 72 70 61 76 74 61 52 41 35 40 54 68 58 59 63 60 49 38 39 60 65 37 32 32 30 26 25 24 21 17 14 13 13 14 13 13
56 55 65 78 96 94 82 77 78 76 66 56 54 51 46 41 32 30 39 50 68 65 59 55 52 39 33 45 46 30 26 24 24 23 21 17 14 13 14 15 14 14 14 14
76 74 69 95 96 84 84 83 82 76 60 48 46 51 60 60 58 61 49 43 46 46 38 34 33 34 32 28 26 26 23 21 20 18 15 14 15 15 15 15 15 15 15 14
81 98 86 97 92 78 75 67 66 58 48 46 44 43 41 46 50 50 44 41 42 47 30 27 27 28 26 23 21 19 17 16 15 15 16 17 16 15 15 16 15 13 12 12
64 63 52 56 56 53 52 47 44 43 44 42 43 41 43 44 44 37 30 32 29 28 26 23 22 21 21 18 15 14 14 15 16 16 16 16 16 16 15 12 12 12 12 12
36 39 42 44 39 35 35 37 38 42 40 41 41 46 52 41 26 26 23 22 22 20 20 21 22 19 15 14 15 15 15 15 15 15 15 15 14 13 13 13 12 11 10 10
32 46 51 47 41 34 32 34 34 36 35 34 31 31 28 24 23 23 22 21 22 22 20 18 15 14 15 16 16 15 15 14 14 15 14 13 14 14 13 12 12 10 10 11
Wind_Speed
34 34 37 38 39 39 40 42 42 43 45 48 50 54 57 58 58 58 59 59 60 59 56 48 49 49 51 54 59 60 64 66 66 68 70 70 71 74 78 81 81 77 72 56
39 40 41 43 43 44 45 46 46 47 49 50 53 55 60 62 63 61 62 61 61 60 52 48 49 50 54 58 61 63 67 68 68 71 73 75 78 81 84 86 83 76 67 56
45 45 45 47 47 49 51 49 50 50 52 55 53 51 62 67 67 66 66 65 65 57 51 52 51 53 56 60 63 66 69 71 73 76 79 81 83 85 87 87 82 73 66 60
49 49 50 51 53 53 56 57 57 57 56 55 62 55 59 68 69 69 68 68 66 54 53 54 56 58 60 64 66 69 73 75 78 81 83 87 89 89 88 87 80 74 70 64
52 54 55 57 58 60 61 63 63 62 62 60 65 65 62 70 70 70 70 71 65 56 59 59 63 64 65 68 71 73 76 80 83 85 87 89 92 92 88 84 78 76 72 68
57 58 61 62 64 66 67 69 68 68 68 68 70 71 68 75 73 70 68 70 65 62 63 65 68 70 71 74 76 78 82 85 87 89 91 93 92 92 85 79 78 76 73 70
62 64 66 68 69 71 73 75 76 73 76 77 78 75 78 78 77 73 71 71 69 66 65 69 72 74 77 80 80 83 87 89 91 93 95 95 92 89 83 79 77 75 75 74
67 66 70 71 73 75 77 81 85 84 82 80 84 85 84 83 80 77 75 73 69 67 71 74 77 79 83 84 85 87 91 93 94 95 96 94 91 86 81 78 77 77 75 74
72 70 72 75 77 81 82 84 87 92 90 89 85 84 84 82 78 75 71 67 67 70 74 80 84 87 87 89 91 94 96 96 99 99 95 92 89 86 83 81 81 80 76 75
79 76 77 80 82 86 89 90 93 95 94 89 82 78 77 73 71 70 73 75 77 80 84 87 89 91 93 96 97 98 100 102 100 98 95 91 91 87 85 85 84 82 80 78
86 85 81 84 88 91 94 94 95 92 89 90 83 76 79 81 81 81 82 84 87 89 91 93 95 96 98 101 102 103 104 102 100 97 95 94 92 89 88 88 86 86 83 81
92 92 89 91 93 94 96 93 90 90 88 88 89 84 87 88 88 89 91 94 96 98 99 100 101 102 103 103 105 104 104 103 100 96 96 96 95 94 93 91 90 89 87 87
97 97 97 96 95 95 93 87 87 90 92 89 95 93 96 97 97 97 98 99 99 100 103 104 108 108 107 108 108 105 102 99 99 100 100 99 98 97 96 96 95 95 94 95
104 101 101 99 95 91 86 85 88 93 95 99 97 101 104 105 102 103 104 106 107 108 108 110 110 109 106 106 105 102 100 102 104 103 103 100 97 96 97 97 98 98 98 100
100 94 91 88 89 92 90 90 95 101 103 106 101 109 109 108 108 109 110 112 112 113 112 111 110 109 104 104 106 105 105 106 106 107 106 103 100 100 100 100 100 101 102 101
94 96 97 94 99 102 99 96 103 107 107 110 110 110 112 114 115 115 115 115 114 114 112 113 110 108 107 105 106 105 106 108 108 107 105 104 104 104 104 105 105 105 104 103
103 104 106 105 109 112 104 102 106 108 111 113 115 118 117 118 119 118 117 117 114 112 110 112 114 117 115 115 114 114 113 112 110 109 108 108 107 107 107 107 107 107 107 105
110 113 116 116 116 118 109 109 112 116 117 118 119 120 120 118 115 114 114 115 114 114 115 115 118 122 123 122 121 120 117 115 112 111 111 110 109 108 108 108 108 107 105 103
115 117 120 122 122 124 116 117 120 121 120 119 119 120 118 116 115 116 118 121 120 119 120 122 122 123 123 123 121 122 121 117 115 114 114 112 111 109 109 109 107 104 100 96
115 121 123 123 123 124 121 122 122 122 123 118 120 121 122 125 122 120 118 121 124 125 126 127 128 127 126 126 126 125 123 121 119 117 115 114 112 110 106 103 100 96 93 89
120 120 122 123 125 127 125 124 123 124 124 124 122 125 129 128 124 125 127 127 128 127 127 128 129 129 128 128 126 124 123 120 118 116 115 112 107 103 100 96 93 90 86 83
123 124 120 121 125 128 129 130 129 132 137 136 129 129 128 130 132 133 134 132 131 130 129 131 130 129 128 125 123 122 120 116 113 112 109 106 101 97 92 88 86 84 82 80
126 127 126 124 129 132 134 132 135 138 138 138 137 135 135 133 133 137 136 135 133 135 132 129 126 125 125 122 119 117 115 112 108 106 101 97 93 90 87 84 82 80 79 75
130 134 133 130 130 134 137 136 134 135 141 141 142 142 140 140 139 137 135 135 133 131 129 127 125 122 121 119 116 112 108 104 100 96 93 91 87 85 84 81 78 75 75 73
129 132 135 136 135 136 136 137 139 142 142 143 145 145 145 143 138 136 134 130 129 126 125 125 125 123 119 115 112 107 101 96 92 90 88 85 82 81 79 78 77 73 73 70
130 133 137 141 140 140 139 140 142 144 145 145 145 141 138 136 134 132 130 128 127 128 126 123 118 114 110 106 103 99 95 91 88 86 84 82 78 78 77 76 76 75 72 71
Wind_Direction
295 296 296 298 299 301 302 302 304 305 305 307 311 311 314 315 316 319 319 318 319 318 315 307 303 303 305 306 309 310 311 313 313 313 313 312 313 316 317 319 319 319 319 315
295 297 298 298 300 300 300 300 301 302 303 306 308 311 312 313 314 317 317 317 317 317 312 307 302 301 302 304 307 307 309 311 312 312 313 313 313 315 316 317 318 318 319 318
293 296 297 299 300 300 299 299 299 300 302 304 304 309 311 310 312 315 315 314 316 312 307 307 303 303 303 305 306 308 309 310 310 310 311 312 313 314 315 316 319 321 322 321
292 294 297 297 298 298 298 299 298 299 300 302 302 308 307 306 310 312 313 313 312 306 304 303 302 304 305 304 306 307 309 310 309 311 312 312 312 314 316 319 322 321 321 322
290 293 295 295 296 297 297 297 298 299 300 301 301 306 307 303 310 310 310 312 310 303 302 301 304 306 304 306 307 307 308 309 309 310 311 311 312 314 318 319 319 319 319 316
288 291 293 294 295 296 296 296 297 298 299 300 301 304 305 304 307 307 306 309 305 300 300 303 304 304 305 305 307 307 307 307 309 310 310 311 313 317 317 316 316 314 314 312
287 289 291 293 294 295 296 296 297 297 298 300 300 301 300 302 304 304 303 303 300 297 299 300 301 301 302 304 306 305 305 306 308 309 309 312 315 315 314 313 312 310 311 309
285 288 291 292 293 294 295 296 298 298 299 300 301 300 301 301 301 301 301 300 298 293 295 298 299 299 302 304 304 304 304 305 307 308 310 313 313 312 311 309 308 309 308 306
284 287 289 290 291 293 293 295 296 297 299 301 300 300 300 301 301 301 300 299 297 296 295 295 297 300 301 302 302 303 305 306 307 309 311 311 310 309 309 308 307 307 306 303
285 286 287 290 292 292 293 294 296 298 299 300 301 301 301 301 301 302 301 300 299 297 297 298 299 299 300 300 302 304 305 307 309 309 308 308 307 306 306 307 306 304 303 301
284 285 286 288 289 291 292 294 295 294 297 299 300 301 300 299 300 300 300 299 298 298 298 299 299 301 303 304 305 305 306 307 307 306 306 306 306 306 306 305 305 304 302 300
283 285 286 287 288 289 291 293 291 292 294 297 300 302 300 300 299 300 300 299 300 301 301 301 302 303 303 304 305 305 305 305 305 306 307 306 306 305 305 305 303 302 301 300
282 283 285 286 288 288 290 290 290 292 295 297 296 300 298 299 302 302 301 301 301 301 302 301 301 303 303 303 303 304 304 304 306 307 307 306 304 303 303 303 302 301 300 299
282 284 286 287 287 287 286 287 288 290 293 292 298 297 298 300 301 300 300 299 300 300 299 300 300 301 303 303 304 305 304 306 306 306 306 303 301 299 299 300 300 299 298 297
283 285 284 284 286 287 287 290 292 292 292 295 296 297 297 298 298 297 298 299 298 298 298 298 299 300 303 304 304 304 304 304 304 304 304 303 301 300 299 298 297 296 295 294
284 285 285 286 287 287 289 293 290 292 294 293 294 295 297 297 297 297 297 298 297 298 299 298 300 301 304 302 302 302 303 304 305 304 303 301 301 300 299 297 297 295 294 292
285 287 287 287 286 287 290 289 291 291 292 293 295 295 296 296 296 296 296 297 298 299 300 302 302 302 303 305 305 305 305 304 304 303 302 301 301 300 299 297 296 295 294 293
284 284 284 285 285 286 287 287 287 287 289 290 292 293 294 295 296 296 297 298 299 300 301 301 302 303 304 305 305 304 304 304 303 303 302 301 301 298 296 296 295 293 292 291
283 284 285 285 285 286 287 286 287 287 288 290 292 292 293 294 297 297 297 297 299 299 300 300 301 302 302 303 304 305 305 304 303 303 302 300 299 299 297 296 294 293 292 291
280 283 284 286 286 287 287 287 287 288 288 290 291 292 293 294 294 295 295 296 297 298 298 300 301 302 303 304 304 304 304 303 301 301 300 300 298 297 296 295 294 293 292 291
279 280 282 285 286 286 287 288 288 287 288 288 291 292 293 294 294 295 297 298 298 299 300 299 300 301 301 302 302 301 301 301 300 300 299 299 298 297 296 295 294 293 292 291
279 279 280 281 283 285 286 288 290 290 292 293 293 293 294 295 296 297 297 297 298 299 300 301 300 300 300 300 300 300 300 300 300 300 299 299 298 297 296 295 293 292 291 289
277 279 280 280 282 284 285 287 287 289 291 292 292 293 293 294 294 296 296 297 298 298 299 299 299 298 299 299 300 300 300 300 300 299 299 298 297 296 295 294 292 291 290 289
276 278 279 280 281 283 284 285 287 288 289 291 291 292 293 295 296 296 297 297 296 298 298 298 299 299 300 300 300 301 301 300 299 298 298 297 296 295 294 293 292 291 290 289
277 278 280 280 281 282 284 285 286 288 289 290 291 292 292 293 293 295 296 297 296 297 299 299 300 299 300 301 300 300 300 299 299 298 297 296 295 294 294 293 292 292 290 290
279 278 278 280 282 283 284 285 286 287 288 289 289 289 290 292 293 294 294 297 298 299 299 299 299 298 299 300 299 300 299 299 299 298 297 296 295 294 293 293 292 291 289 289